Flag for U.S.A. Weather past 2 weeks in Dayton, Ohio, U.S.A.

Now
79 °F

Clear.


Feels Like: 83 °F
Forecast: 71 / 89 °F
Wind: 3 mph from West

Location: Dayton / Wright-Patterson Air Force Base

Current Time: Jul 28, 2015 at 11:20:22 PM

Latest Report: Jul 28, 2015 at 10:58 PM


Visibility: 10 mi

Pressure: 29.99 "Hg

Humidity: 81%

Dew point: 73 °F

Location of DaytonLocation

Historic Weather in Dayton — Graph

°F

Dayton temperature yesterday

Maximum temperature yesterday: 83 °F (at 3:58 PM)
Minimum temperature yesterday: 72 °F (at 8:02 AM)
Average temperature yesterday: 76 °F

Past Weeks' High & Low Weather Summary

 TemperatureHumidityPressure
High91 °F (Jul 18, 3:58 PM)100% (Jul 14, 2:58 AM)30.09 "Hg (Jul 14, 2:58 AM)
Low55 °F (Jul 22, 6:58 AM)35% (Jul 22, 3:58 PM)29.53 "Hg (Jul 14, 1:58 PM)
Average75 °F77%29.92 "Hg
* Reported Jul 13 9:58 PM — Jul 28 9:58 PM, Dayton, Weather by CustomWeather, © 2015

Note: Actual official high and low records may vary slightly from our data, if they occured in-between our weather recording intervals... More about our weather records

Advertising

Dayton weather history for previous 24 hours

 ConditionsComfort  
Time TempWeatherWind HumidityBarometerVisibility
9:58 PM
Tue, Jul 28
80 °FClear.2 mph80%29.96 "Hg10 mi
8:58 PM84 °FSunny.3 mph68%29.93 "Hg10 mi
7:58 PM86 °FSunny.6 mph61%29.93 "Hg10 mi
6:58 PM88 °FSunny.3 mph57%29.94 "Hg10 mi
5:58 PM89 °FSunny.6 mph56%29.96 "Hg10 mi
4:58 PM88 °FScattered clouds.5 mph59%29.96 "Hg10 mi
3:58 PM87 °FPassing clouds.5 mph58%29.97 "Hg10 mi
2:58 PM88 °FPassing clouds.6 mph59%29.98 "Hg10 mi
1:58 PM85 °FScattered clouds.7 mph65%30.00 "Hg10 mi
12:58 PM86 °FPassing clouds.2 mph64%30.00 "Hg10 mi
11:58 AM83 °FScattered clouds.1 mph69%30.00 "Hg10 mi
10:58 AM82 °FSunny.2 mph75%30.00 "Hg10 mi
9:58 AM79 °FSunny.5 mph74%30.01 "Hg10 mi
8:58 AM75 °FSunny.1 mph81%30.01 "Hg10 mi
7:58 AM71 °FPassing clouds.1 mph85%30.02 "Hg10 mi
6:58 AM70 °FPassing clouds.1 mph88%30.00 "Hg10 mi
5:58 AM71 °FClear.2 mph88%30.00 "Hg10 mi
4:58 AM72 °FPassing clouds.5 mph85%29.98 "Hg10 mi
3:58 AM72 °FClear.2 mph81%29.97 "Hg10 mi
2:58 AM72 °FClear.1 mph91%29.97 "Hg10 mi
1:58 AM74 °FPassing clouds.6 mph88%29.99 "Hg10 mi
12:58 AM74 °FPassing clouds.1 mph89%30.00 "Hg10 mi
11:58 PM
Mon, Jul 27
75 °FPassing clouds.No wind90%30.01 "Hg10 mi
Weather by CustomWeather, © 2015

See weather overviewHow to use our weather pages